{"data":{"norad_id":67022,"epoch":"2026-05-24T18:02:01.214016Z","epoch_age_seconds":106775,"freshness":"FRESH","line1":"1 67022U 25293V   26144.75140294  .00003103  00000+0  26770-3 0  9998","line2":"2 67022  70.0007 262.5717 0003049 270.9622  89.1187 14.98338825 26280","mean_motion":14.98338825,"eccentricity":0.0003049,"inclination_deg":70.0007,"raan_deg":262.5717,"arg_perigee_deg":270.9622,"mean_anomaly_deg":89.1187,"bstar":0.0002677,"rev_number":2628,"period_min":96.106433069303,"perigee_km":569.90949500225,"apogee_km":574.14770598543,"semimajor_km":6950.1656004938,"source":"CELESTRAK","updated_at":"2026-05-25T13:38:21.433653Z"}}